Regional Weather Roundup
Issued by NWS Austin/San Antonio, TX

Home | Current Version | Previous Version | Text Only | Print | Product List | Glossary On
Versions: 1 2 3 4 5 6 7 8 9 10 11 12 13 14 15 16 17 18 19 20 21 22 23 24 25 26 27 28 29 30 31 32 33 34 35 36 37 38 39 40 41 42 43 44 45 46 47 48 49 50
000
ASUS44 KEWX 201510
RWREWX
SOUTH TEXAS REGIONAL WEATHER ROUNDUP
NATIONAL WEATHER SERVICE AUSTIN/SAN ANTONIO TX
1000 AM CDT WED SEP 20 2017

NOTE: "FAIR" INDICATED FEW OR NO CLOUDS BELOW 12,000 FEET WITH NO
SIGNIFICANT WEATHER AND/OR OBSTRUCTIONS TO VISIBILITY.

* - THESE STATIONS ARE NOT NWS OR FAA STATIONS...AND ARE NOT SUBJECT
    TO NWS AND FAA QUALITY CONTROL.

TXZ171-172-183>190-201600-
TEXAS HILL COUNTRY AND EDWARDS PLATEAU

CITY           SKY/WX    TMP DP  RH WIND       PRES   REMARKS
JUNCTION       SUNNY     81  71  71 S12       29.95R
*LLANO         MOSUNNY   82  73  74 E9        29.97R
BURNET         CLOUDY    80  72  76 S15G21    29.97R
*HORSESHOE BAY CLOUDY    82  71  68 S9        29.95R
*KERRVILLE     CLOUDY    77  72  85 S13       29.98R
*FREDERICKSBRG PTSUNNY   79  67  67 S14       29.98R
*ROCKSPRINGS   NOT AVBL
*BOERNE STAGE  CLOUDY    79  70  73 S9        29.99R
*CASTROVILLE   CLOUDY    82  71  67 S9        29.96R
HONDO          CLOUDY    81  74  79 SE10      29.95R
*UVALDE        CLOUDY    77  73  87 S9        29.95R
DEL RIO        MOSUNNY   79  72  79 SE12      29.90R
LAUGHLIN AFB   PTSUNNY   81  72  75 SE14      29.92R
CARRIZO SPRGS  MOSUNNY   82  73  74 S9        29.90R
*EAGLE PASS    MOSUNNY   82  72  69 SE10G16   29.90S
$$

TXZ173-191>194-202-209-217>225-228-201600-
CENTRAL AND SOUTH CENTRAL TEXAS

CITY           SKY/WX    TMP DP  RH WIND       PRES   REMARKS
GEORGETOWN     CLOUDY    82  73  74 S18       29.96R
AUSTIN/BERGSTM MOSUNNY   85  74  69 S18       29.94R HX  92
AUSTIN/MABRY   CLOUDY    82  73  74 VRB6      29.95R
*AUSTIN/EXEC   CLOUDY    81  73  78 S15G21    29.95R
*LAGO VISTA    CLOUDY    81  73  77 S12G20    29.97R
SAN MARCOS     PTSUNNY   84  74  71 S16       29.95R HX  91
NEW BRAUNFELS  CLOUDY    85  74  69 S16G22    29.94R HX  92
RANDOLPH AFB   PTSUNNY   82  75  78 S10       29.95R
PT SAN ANTONIO PTSUNNY   83  73  73 SE10      29.93S
SAN ANTONIO    PTSUNNY   82  72  71 S12       29.95R
STINSON FIELD  PTSUNNY   84  74  71 SE12      29.93R HX  91
*LA GRANGE     CLOUDY    86  78  78 S9        29.93R HX  99
*GIDDINGS      PTSUNNY   80  74  83 S10       29.96R
*GONZALES      CLOUDY    82  81  98 S10       29.94R HX  94
$$

TXZ163>164-176>182-195>201-210>213-226-227-235-201600-
SOUTHEAST TEXAS

CITY           SKY/WX    TMP DP  RH WIND       PRES   REMARKS
COLLEGE STN    PTSUNNY   82  77  84 S8        29.95S HX  90
*BRYAN         CLOUDY    82  77  84 S9G18     29.97R
*CALDWELL      CLOUDY    82  76  82 S10G18    29.96R
*CROCKETT      PTSUNNY   82  75  78 S9        29.99R
*BRENHAM       CLOUDY    83  78  85 S10G16    29.97R HX  92
HUNTSVILLE     MOSUNNY   84  74  71 S12       29.97R HX  91
CONROE         MOSUNNY   84  76  76 S9        29.97R HX  93
HOUSTON BUSH   MOSUNNY   84  75  74 S9        29.96R HX  92
HOUSTON HOBBY  MOSUNNY   87  77  72 S12       29.95R HX  99
*HOUSTON SW AP PTSUNNY   84  78  82 S10G17    29.96S HX  95
PEARLAND       MOSUNNY   87  76  69 S10       29.97R HX  97
HOUSTON HOOKS  PTSUNNY   86  76  71 S8        29.96R HX  96
ELLINGTON FLD  PTSUNNY   82  75  78 S10       29.97R
SUGAR LAND     PTSUNNY   87  78  74 S13       29.95R HX 100
*HOUSTON EXEC  MOSUNNY   84  77  79 S13       29.97R HAZE    HX  94
*CLEVELAND MUN PTSUNNY   83  76  79 S6        29.98R HAZE    HX  92
*WHARTON       MOSUNNY   84  77  78 SE8       29.96R HX  94
*COLUMBUS      PTSUNNY   83  77  81 S7        29.97R HX  91
*EAGLE LAKE    PTSUNNY   84  80  87 S7        29.95R HX  97
$$

TXZ214>216-236>238-201600-
THE UPPER TEXAS COAST

CITY           SKY/WX    TMP DP  RH WIND       PRES   REMARKS
*ORANGE        CLOUDY    82  79  90 S9        30.01R THUNDER HX  93
PORT ARTHUR    TSTM      74  71  91 SW8       29.98R FOG
GALVESTON      MOSUNNY   88  79  74 S13       29.97R HX 103
ANGLETON       SUNNY     86  76  71 S10       29.95S HX  96
*BAY CITY      MOSUNNY   85  79  82 S10       29.95R HX  98
PALACIOS       MOSUNNY   84  77  79 S14       29.95R HX  94
$$

TXZ229>234-239>247-201600-
TEXAS COASTAL BEND AND RIO GRANDE PLAINS

CITY           SKY/WX    TMP DP  RH WIND       PRES   REMARKS
VICTORIA       PTSUNNY   86  77  74 S13       29.94R HX  97
*BEEVILLE      CLOUDY    85  71  61 S13G18    29.93R HX  90
ROCKPORT       MOSUNNY   87  76  69 S10       29.92R HX  97
*PORT ARANSAS  NOT AVBL
*PORT LAVACA   CLOUDY    86  77  73 S12       29.94  HX  96
*INGLESIDE     NOT AVBL
CORPUS CHRISTI PTSUNNY   87  75  67 S17       29.92R HX  96
CORPUS NAS     PTSUNNY   87  78  74 S10       29.92R HX 100
*ROBSTOWN      PTSUNNY   86  76  71 S14       29.93R HX  96
ALICE          MOSUNNY   87  75  67 S16       29.91R HX  96
KINGSVILLE NAS PTSUNNY   88  77  69 S16       29.92R HX 100
COTULLA        MOSUNNY   84  73  69 SE14G22   29.90S HX  90
*FAITH RANCH   SUNNY     84  73  70 VRB7G17   29.90S HX  91
LAREDO         SUNNY     86  74  67 S15       29.90R HX  94
$$

TXZ248>255-201600-
DEEP SOUTH TEXAS

CITY           SKY/WX    TMP DP  RH WIND       PRES   REMARKS
BROWNSVILLE    PTSUNNY   87  78  74 S18       29.92R HX 100
PORT ISABEL    MOSUNNY   87  75  67 S18G25    29.91R HX  96
*SOUTH PADRE   NOT AVBL
HARLINGEN      MOSUNNY   87  76  69 S17       29.90R HX  97
*HEBBRONVILLE  MOSUNNY   83  72  67 S16       29.93R
MCALLEN        MOSUNNY   88  75  65 S16G24    29.91R HX  97
*WESLACO       PTSUNNY   86  75  70 S15       29.91R HX  95
FALFURRIAS     PTSUNNY  -38  32 100 SE14G20   29.91R WCI -67
EDINBURG       MOSUNNY   86  74  66 S14       29.91R HX  94
*ZAPATA        MOSUNNY   86  72  62 SE9G17    29.90R HX  92
$$

TXZ213>215-236>238-242>244-246-247-251-254-255-201600-
CMAN STATIONS

STATION/POSITION TIME  TEMP    WIND        PRES    WAVE
                       AIR SEA DIR/SP/G            HT/PER
                 (UTC) (F)     (DEG/KT/KT) (MB)    (FT/S)
SABINE PASS      1442   85 84  180/ 10/ 15 1016.7
SEA RIM ST PARK  1400   83     180/  9/ 11 1015.2
NORTH JETTY/GLS  1442      83  180/ 11/ 13 1014.4
EAGLE POINT      1442   84 83  200/ 10/ 12 1014.7
MORGANS POINT    1442   84 82  160/  5/  8 1014.4
PORT O`CONNOR    1442   84 84  170/ 12/ 13 1013.6
MALAQUITE BEACH  1442   84 84  150/ 14/ 16 1012.7
BAFFIN BAY       1442   83 83  160/ 13/ 15 1013.1
PORT ISABEL      1442   85 85  150/ 13/ 17 1013.2
$$



USA.gov is the U.S. government's official web portal to all federal, state and local government web resources and services.